H1 CPF 2 NER 2022 12 14 9 348 01 glonass142 H2 2001801 9142 45358 2022 12 14 0 0 0 2022 12 17 23 45 0 900 1 1 0 0 0 1 H9 10 0 59927 0.00000 0 -10780471.090 8260225.254 -21564236.368 10 0 59927 900.00000 0 -10613051.225 5539314.927 -22497979.208 10 0 59927 1800.00000 0 -10648117.457 2725528.636 -22993623.730 10 0 59927 2700.00000 0 -10892776.619 -111287.323 -23041565.146 10 0 59927 3600.00000 0 -11341748.403 -2900828.194 -22640933.759 10 0 59927 4500.00000 0 -11977563.699 -5575020.023 -21799607.055 10 0 59927 5400.00000 0 -12771295.857 -8070612.303 -20534049.815 10 0 59927 6300.00000 0 -13683793.579 -10331566.323 -18868985.743 10 0 59927 7200.00000 0 -14667362.848 -12311140.225 -16836907.492 10 0 59927 8100.00000 0 -15667826.337 -13973584.796 -14477435.125 10 0 59927 9000.00000 0 -16626872.765 -15295380.536 -11836535.993 10 0 59927 9900.00000 0 -17484596.485 -16265965.847 -8965621.837 10 0 59927 10800.00000 0 -18182119.650 -16887927.843 -5920541.256 10 0 59927 11700.00000 0 -18664185.962 -17176649.856 -2760487.728 10 0 59927 12600.00000 0 -18881616.391 -17159432.551 453154.943 10 0 59927 13500.00000 0 -18793523.261 -16874127.691 3658006.826 10 0 59927 14400.00000 0 -18369189.560 -16367343.854 6791902.191 10 0 59927 15300.00000 0 -17589534.565 -15692301.155 9794092.218 10 0 59927 16200.00000 0 -16448104.465 -14906426.365 12606416.907 10 0 59927 17100.00000 0 -14951546.614 -14068790.317 15174423.884 10 0 59927 18000.00000 0 -13119547.664 -13237495.538 17448413.024 10 0 59927 18900.00000 0 -10984238.087 -12467123.717 19384387.642 10 0 59927 19800.00000 0 -8589087.477 -11806349.596 20944894.994 10 0 59927 20700.00000 0 -5987336.013 -11295820.684 22099740.938 10 0 59927 21600.00000 0 -3240026.197 -10966390.800 22826566.157 10 0 59927 22500.00000 0 -413715.190 -10837780.744 23111273.765 10 0 59927 23400.00000 0 2422038.933 -10917721.641 22948300.709 10 0 59927 24300.00000 0 5197314.621 -11201616.660 22340728.050 10 0 59927 25200.00000 0 7844480.514 -11672735.479 21300227.857 10 0 59927 26100.00000 0 10300756.962 -12302933.949 19846847.197 10 0 59927 27000.00000 0 12510580.619 -13053869.772 18008632.464 10 0 59927 27900.00000 0 14427675.086 -13878664.333 15821100.032 10 0 59927 28800.00000 0 16016742.152 -14723942.160 13326562.155 10 0 59927 29700.00000 0 17254703.570 -15532163.396 10573319.699 10 0 59927 30600.00000 0 18131441.602 -16244151.985 7614736.068 10 0 59927 31500.00000 0 18650007.057 -16801713.481 4508209.319 10 0 59927 32400.00000 0 18826285.829 -17150232.055 1314061.703 10 0 59927 33300.00000 0 18688137.580 -17241136.465 -1905632.041 10 0 59927 34200.00000 0 18274042.568 -17034129.806 -5088254.662 10 0 59927 35100.00000 0 17631313.620 -16499087.337 -8171870.585 10 0 59927 36000.00000 0 16813948.907 -15617540.430 -11096439.713 10 0 59927 36900.00000 0 15880216.671 -14383682.063 -13804996.104 10 0 59927 37800.00000 0 14890074.654 -12804849.491 -16244767.553 10 0 59927 38700.00000 0 13902534.150 -10901461.902 -18368213.269 10 0 59927 39600.00000 0 12973080.970 -8706414.141 -20133958.474 10 0 59927 40500.00000 0 12151263.199 -6263950.660 -21507607.085 10 0 59927 41400.00000 0 11478548.325 -3628065.923 -22462416.226 10 0 59927 42300.00000 0 10986540.760 -860497.672 -22979819.158 10 0 59927 43200.00000 0 10695635.246 1971603.463 -23049786.500 10 0 59927 44100.00000 0 10614162.890 4798230.935 -22671018.863 10 0 59927 45000.00000 0 10738065.592 7549199.150 -21850967.410 10 0 59927 45900.00000 0 11051112.015 10156828.808 -20605682.358 10 0 59927 46800.00000 0 11525645.261 12558528.991 -18959492.750 10 0 59927 47700.00000 0 12123829.814 14699168.714 -16944524.206 10 0 59927 48600.00000 0 12799344.182 16533139.685 -14600064.567 10 0 59927 49500.00000 0 13499446.844 18026025.220 -11971790.218 10 0 59927 50400.00000 0 14167327.331 19155806.756 -9110868.821 10 0 59927 51300.00000 0 14744642.371 19913559.153 -6072956.459 10 0 59927 52200.00000 0 15174129.331 20303607.483 -2917109.289 10 0 59927 53100.00000 0 15402186.113 20343140.649 295368.456 10 0 59927 54000.00000 0 15381308.320 20061300.090 3502117.281 10 0 59927 54900.00000 0 15072280.785 19497783.708 6640932.521 10 0 59927 55800.00000 0 14446031.151 18701025.316 9650967.986 10 0 59927 56700.00000 0 13485067.588 17726027.439 12473909.937 10 0 59927 57600.00000 0 12184440.380 16631939.366 15055099.026 10 0 59927 58500.00000 0 10552187.071 15479482.601 17344579.041 10 0 59927 59400.00000 0 8609242.418 14328331.698 19298053.134 10 0 59927 60300.00000 0 6388816.476 13234559.818 20877730.123 10 0 59927 61200.00000 0 3935266.103 12248255.304 22053045.639 10 0 59927 62100.00000 0 1302505.778 11411408.065 22801245.368 10 0 59927 63000.00000 0 -1447977.633 10756153.192 23107820.115 10 0 59927 63900.00000 0 -4249425.313 10303444.402 22966784.948 10 0 59927 64800.00000 0 -7032328.613 10062212.110 22380797.409 10 0 59927 65700.00000 0 -9727070.185 10029041.029 21361112.395 10 0 59927 66600.00000 0 -12266576.344 10188380.875 19927374.050 10 0 59927 67500.00000 0 -14588872.245 10513281.765 18107247.798 10 0 59927 68400.00000 0 -16639435.072 10966624.220 15935898.366 10 0 59927 69300.00000 0 -18373248.130 11502793.053 13455322.561 10 0 59927 70200.00000 0 -19756470.813 12069725.695 10713548.266 10 0 59927 71100.00000 0 -20767654.784 12611249.559 7763713.859 10 0 59927 72000.00000 0 -21398455.198 13069610.408 4663044.916 10 0 59927 72900.00000 0 -21653806.738 13388085.137 1471747.349 10 0 59927 73800.00000 0 -21551556.506 13513568.205 -1748161.851 10 0 59927 74700.00000 0 -21121568.692 13399021.541 -4934063.276 10 0 59927 75600.00000 0 -20404338.399 13005682.990 -8023959.217 10 0 59927 76500.00000 0 -19449172.965 12304938.237 -10957688.586 10 0 59927 77400.00000 0 -18312017.683 11279775.208 -13678107.907 10 0 59927 78300.00000 0 -17053018.133 9925757.499 -16132214.366 10 0 59927 79200.00000 0 -15733922.640 8251473.799 -18272187.991 10 0 59927 80100.00000 0 -14415435.280 6278442.595 -20056331.757 10 0 59927 81000.00000 0 -13154631.835 4040474.595 -21449890.622 10 0 59927 81900.00000 0 -12002548.344 1582518.362 -22425733.123 10 0 59927 82800.00000 0 -11002044.372 -1040963.343 -22964881.981 10 0 59927 83700.00000 0 -10186031.214 -3768019.189 -23056883.424 10 0 59927 84600.00000 0 -9576139.548 -6531552.653 -22700008.182 10 0 59927 85500.00000 0 -9181882.228 -9261885.382 -21901280.517 10 0 59928 0.00000 0 -9000346.730 -11889433.563 -20676335.240 10 0 59928 900.00000 0 -9016429.180 -14347387.148 -19049105.166 10 0 59928 1800.00000 0 -9203599.091 -16574276.894 -17051347.312 10 0 59928 2700.00000 0 -9525160.975 -18516327.203 -14722015.327 10 0 59928 3600.00000 0 -9935958.549 -20129493.670 -12106492.456 10 0 59928 4500.00000 0 -10384448.193 -21381102.490 -9255699.943 10 0 59928 5400.00000 0 -10815052.943 -22251024.173 -6225098.923 10 0 59928 6300.00000 0 -11170696.562 -22732333.915 -3073605.764 10 0 59928 7200.00000 0 -11395409.855 -22831432.564 137557.366 10 0 59928 8100.00000 0 -11436898.545 -22567624.943 3346053.902 10 0 59928 9000.00000 0 -11248963.950 -21972174.952 6489642.750 10 0 59928 9900.00000 0 -10793674.213 -21086878.757 9507382.845 10 0 59928 10800.00000 0 -10043194.584 -19962217.318 12340809.174 10 0 59928 11700.00000 0 -8981199.769 -18655166.796 14935057.806 10 0 59928 12600.00000 0 -7603809.095 -17226759.226 17239918.725 10 0 59928 13500.00000 0 -5920005.143 -15739495.827 19210797.005 10 0 59928 14400.00000 0 -3951517.978 -14254720.857 20809564.871 10 0 59928 15300.00000 0 -1732179.243 -12830065.219 22005289.266 10 0 59928 16200.00000 0 693227.989 -11517065.614 22774822.089 10 0 59928 17100.00000 0 3270577.074 -10359057.554 23103242.677 10 0 59928 18000.00000 0 5938398.089 -9389429.066 22984144.704 10 0 59928 18900.00000 0 8630189.400 -8630306.978 22419762.324 10 0 59928 19800.00000 0 11276946.552 -8091729.861 21420933.033 10 0 59928 20700.00000 0 13809805.317 -7771341.813 20006897.491 10 0 59928 21600.00000 0 16162690.996 -7654619.787 18204939.250 10 0 59928 22500.00000 0 18274865.265 -7715625.238 16049870.136 10 0 59928 23400.00000 0 20093265.589 -7918249.102 13583369.890 10 0 59928 24300.00000 0 21574540.277 -8217898.444 10853191.412 10 0 59928 25200.00000 0 22686694.386 -8563554.466 7912245.672 10 0 59928 26100.00000 0 23410277.282 -8900115.626 4817583.018 10 0 59928 27000.00000 0 23739061.572 -9170927.132 1629289.955 10 0 59928 27900.00000 0 23680184.178 -9320389.742 -1590677.553 10 0 59928 28800.00000 0 23253742.842 -9296536.839 -4779701.349 10 0 59928 29700.00000 0 22491864.410 -9053469.670 -7875724.979 10 0 59928 30600.00000 0 21437283.692 -8553546.140 -10818469.624 10 0 59928 31500.00000 0 20141492.645 -7769228.852 -13550617.316 10 0 59928 32400.00000 0 18662538.028 -6684512.240 -16018937.360 10 0 59928 33300.00000 0 17062560.732 -5295866.538 -18175333.017 10 0 59928 34200.00000 0 15405181.082 -3612656.890 -19977787.061 10 0 59928 35100.00000 0 13752840.857 -1657018.173 -21391187.176 10 0 59928 36000.00000 0 12164214.543 536810.635 -22388014.608 10 0 59928 36900.00000 0 10691799.192 2923665.774 -22948882.443 10 0 59928 37800.00000 0 9379784.460 5449103.090 -23062913.003 10 0 59928 38700.00000 0 8262292.216 8051439.303 -22727947.202 10 0 59928 39600.00000 0 7362059.307 10664105.044 -21950582.033 10 0 59928 40500.00000 0 6689618.017 13218211.565 -20746035.860 10 0 59928 41400.00000 0 6243007.527 15645224.077 -19137844.523 10 0 59928 42300.00000 0 6008027.195 17879630.082 -17157394.650 10 0 59928 43200.00000 0 5959019.379 19861491.541 -14843303.742 10 0 59928 44100.00000 0 6060147.180 21538774.593 -12240659.576 10 0 59928 45000.00000 0 6267111.608 22869359.971 -9400134.341 10 0 59928 45900.00000 0 6529234.110 23822650.873 -6376991.302 10 0 59928 46800.00000 0 6791815.170 24380712.057 -3230003.906 10 0 59928 47700.00000 0 6998668.176 24538893.737 -20308.990 10 0 59928 48600.00000 0 7094720.622 24305915.619 3189783.111 10 0 59928 49500.00000 0 7028572.152 23703409.095 6337998.098 10 0 59928 50400.00000 0 6754901.125 22764938.294 9363303.103 10 0 59928 51300.00000 0 6236618.061 21534542.381 12207084.676 10 0 59928 52200.00000 0 5446675.225 20064861.227 14814276.863 10 0 59928 53100.00000 0 4369456.306 18414923.671 17134418.079 10 0 59928 54000.00000 0 3001687.803 16647691.143 19122617.247 10 0 59928 54900.00000 0 1352833.663 14827459.146 20740411.598 10 0 59928 55800.00000 0 -555043.753 13017224.511 21956500.670 10 0 59928 56700.00000 0 -2687951.423 11276127.305 22747343.510 10 0 59928 57600.00000 0 -5001135.512 9657072.848 23097608.584 10 0 59928 58500.00000 0 -7440706.047 8204631.660 23000468.370 10 0 59928 59400.00000 0 -9945650.690 6953303.583 22457733.405 10 0 59928 60300.00000 0 -12450155.879 5926217.314 21479823.114 10 0 59928 61200.00000 0 -14886140.784 5134318.802 20085573.511 10 0 59928 62100.00000 0 -17185900.614 4576081.901 18301884.638 10 0 59928 63000.00000 0 -19284750.940 4237753.169 16163213.328 10 0 59928 63900.00000 0 -21123563.996 4094120.802 13710919.765 10 0 59928 64800.00000 0 -22651091.967 4109775.708 10992479.057 10 0 59928 65700.00000 0 -23825980.447 4240812.194 8060571.727 10 0 59928 66600.00000 0 -24618387.532 4436897.046 4972069.751 10 0 59928 67500.00000 0 -25011140.101 4643619.877 1786937.046 10 0 59928 68400.00000 0 -25000377.871 4805025.378 -1432934.592 10 0 59928 69300.00000 0 -24595657.130 4866219.863 -4624931.297 10 0 59928 70200.00000 0 -23819508.835 4775940.898 -7726940.782 10 0 59928 71100.00000 0 -22706468.884 4488979.919 -10678569.262 10 0 59928 72000.00000 0 -21301620.848 3968353.686 -13422326.848 10 0 59928 72900.00000 0 -19658712.339 3187130.859 -15904757.313 10 0 59928 73800.00000 0 -17837924.363 2129834.526 -18077489.195 10 0 59928 74700.00000 0 -15903387.904 793359.604 -19898186.766 10 0 59928 75600.00000 0 -13920552.634 -812635.409 -21331381.704 10 0 59928 76500.00000 0 -11953518.848 -2665880.363 -22349168.791 10 0 59928 77400.00000 0 -10062445.132 -4732183.960 -22931751.815 10 0 59928 78300.00000 0 -8301140.806 -6966634.846 -23067829.069 10 0 59928 79200.00000 0 -6714944.052 -9315263.672 -22754811.075 10 0 59928 80100.00000 0 -5338974.400 -11717096.881 -21998866.571 10 0 59928 81000.00000 0 -4196832.079 -14106516.567 -20814796.240 10 0 59928 81900.00000 0 -3299797.639 -16415827.782 -19225737.036 10 0 59928 82800.00000 0 -2646564.073 -18577925.940 -17262703.341 10 0 59928 83700.00000 0 -2223510.932 -20528952.798 -14963974.334 10 0 59928 84600.00000 0 -2005507.054 -22210830.115 -12374340.005 10 0 59928 85500.00000 0 -1957206.201 -23573565.140 -9544221.076 10 0 59929 0.00000 0 -2034779.077 -24577231.888 -6528680.782 10 0 59929 900.00000 0 -2188006.993 -25193546.363 -3386346.668 10 0 59929 1800.00000 0 -2362647.138 -25406969.386 -178268.116 10 0 59929 2700.00000 0 -2502968.494 -25215293.703 3033273.111 10 0 59929 3600.00000 0 -2554350.259 -24629690.598 6185971.802 10 0 59929 4500.00000 0 -2465832.518 -23674215.902 9218705.525 10 0 59929 5400.00000 0 -2192511.203 -22384797.244 12072714.563 10 0 59929 6300.00000 0 -1697676.294 -20807745.905 14692733.032 10 0 59929 7200.00000 0 -954603.299 -18997856.275 17028049.752 10 0 59929 8100.00000 0 52077.241 -17016172.699 19033479.297 10 0 59929 9000.00000 0 1325489.773 -14927516.783 20670225.500 10 0 59929 9900.00000 0 2856140.755 -12797877.834 21906621.822 10 0 59929 10800.00000 0 4622078.918 -10691774.215 22718735.516 10 0 59929 11700.00000 0 6589582.988 -8669694.218 23090824.910 10 0 59929 12600.00000 0 8714349.454 -6785721.625 23015641.721 10 0 59929 13500.00000 0 10943132.559 -5085443.245 22494573.002 10 0 59929 14400.00000 0 13215770.083 -3604224.169 21537619.936 10 0 59929 15300.00000 0 15467512.540 -2365921.439 20163213.435 10 0 59929 16200.00000 0 17631560.711 -1382088.905 18397869.291 10 0 59929 17100.00000 0 19641707.557 -651705.914 16275688.301 10 0 59929 18000.00000 0 21434975.633 -161441.036 13837709.738 10 0 59929 18900.00000 0 22954140.792 113560.179 11131129.230 10 0 59929 19800.00000 0 24150037.094 208396.269 8208394.814 10 0 59929 20700.00000 0 24983546.168 166693.227 5126197.704 10 0 59929 21600.00000 0 25427187.087 38522.408 1944376.527 10 0 59929 22500.00000 0 25466238.994 -121959.131 -1275244.056 10 0 59929 23400.00000 0 25099348.113 -259045.737 -4470057.601 10 0 59929 24300.00000 0 24338592.395 -318089.651 -7577899.185 10 0 59929 25200.00000 0 23208999.911 -248065.436 -10538263.184 10 0 59929 26100.00000 0 21747540.350 -3982.378 -13293490.758 10 0 59929 27000.00000 0 20001631.459 450958.926 -15789902.876 10 0 59929 27900.00000 0 18027222.897 1143558.816 -17978855.794 10 0 59929 28800.00000 0 15886538.120 2089237.867 -19817697.422 10 0 59929 29700.00000 0 13645569.371 3291143.246 -21270605.277 10 0 59929 30600.00000 0 11371431.220 4739781.415 -22309289.212 10 0 59929 31500.00000 0 9129684.084 6413193.892 -22913544.948 10 0 59929 32400.00000 0 6981740.084 8277669.767 -23071647.640 10 0 59929 33300.00000 0 4982459.881 10288965.831 -22780577.944 10 0 59929 34200.00000 0 3178040.909 12393983.539 -22046076.465 10 0 59929 35100.00000 0 1604284.683 14532832.813 -20882525.901 10 0 59929 36000.00000 0 285314.736 16641196.297 -19312663.567 10 0 59929 36900.00000 0 -767202.446 18652894.929 -17367130.384 10 0 59929 37800.00000 0 -1554302.583 20502547.338 -15083865.561 10 0 59929 38700.00000 0 -2089426.479 22128211.580 -12507359.239 10 0 59929 39600.00000 0 -2397595.180 23473898.529 -9687778.229 10 0 59929 40500.00000 0 -2514094.243 24491851.756 -6679982.408 10 0 59929 41400.00000 0 -2482724.585 25144498.682 -3542451.481 10 0 59929 42300.00000 0 -2353695.478 25405991.700 -336143.632 10 0 59929 43200.00000 0 -2181250.201 25263275.429 2876691.254 10 0 59929 44100.00000 0 -2021125.799 24716636.230 6033720.360 10 0 59929 45000.00000 0 -1927955.048 23779711.955 9073734.902 10 0 59929 45900.00000 0 -1952720.786 22478962.497 11937831.960 10 0 59929 46800.00000 0 -2140370.153 20852624.164 14570548.540 10 0 59929 47700.00000 0 -2527689.234 18949192.272 16920926.441 10 0 59929 48600.00000 0 -3141527.349 16825495.630 18943488.169 10 0 59929 49500.00000 0 -3997445.507 14544443.171 20599106.135 10 0 59929 50400.00000 0 -5098845.664 12172536.180 21855749.388 10 0 59929 51300.00000 0 -6436617.523 9777248.775 22689094.704 10 0 59929 52200.00000 0 -7989318.279 7424384.318 23082991.234 10 0 59929 53100.00000 0 -9723878.691 5175516.255 23029770.491 10 0 59929 54000.00000 0 -11596807.398 3085618.124 22530396.151 10 0 59929 54900.00000 0 -13555844.890 1200979.650 21594450.781 10 0 59929 55800.00000 0 -15541999.968 -442505.718 20239959.313 10 0 59929 56700.00000 0 -17491885.641 -1820611.736 18493051.876 10 0 59929 57600.00000 0 -19340258.805 -2921556.585 16387471.322 10 0 59929 58500.00000 0 -21022659.044 -3746254.387 13963933.634 10 0 59929 59400.00000 0 -22478037.367 -4308030.658 11269352.174 10 0 59929 60300.00000 0 -23651265.378 -4631813.634 8355939.414 10 0 59929 61200.00000 0 -24495419.721 -4752835.197 5280202.507 10 0 59929 62100.00000 0 -24973745.392 -4714895.990 2101851.373 10 0 59929 63000.00000 0 -25061214.502 -4568267.869 -1117359.897 10 0 59929 63900.00000 0 -24745613.627 -4367322.478 -4314835.677 10 0 59929 64800.00000 0 -24028112.537 -4167986.807 -7428361.697 10 0 59929 65700.00000 0 -22923288.932 -4025134.276 -10397323.640 10 0 59929 66600.00000 0 -21458606.835 -3990022.969 -13163896.659 10 0 59929 67500.00000 0 -19673369.556 -4107890.944 -15674181.621 10 0 59929 68400.00000 0 -17617190.516 -4415811.955 -17879264.876 10 0 59929 69300.00000 0 -15348045.850 -4940903.945 -19736179.947 10 0 59929 70200.00000 0 -12929990.418 -5698967.583 -21208751.685 10 0 59929 71100.00000 0 -10430633.094 -6693613.819 -22268305.968 10 0 59929 72000.00000 0 -7918477.379 -7915918.420 -22894230.845 10 0 59929 72900.00000 0 -5460238.801 -9344619.079 -23074378.158 10 0 59929 73800.00000 0 -3118251.328 -10946847.529 -22805297.999 10 0 59929 74700.00000 0 -948071.117 -12679366.301 -22092301.667 10 0 59929 75600.00000 0 1003622.777 -14490258.458 -20949352.298 10 0 59929 76500.00000 0 2700743.856 -16320999.371 -19398785.660 10 0 59929 77400.00000 0 4119059.182 -18108823.455 -17470867.037 10 0 59929 78300.00000 0 5246944.780 -19789286.368 -15203193.274 10 0 59929 79200.00000 0 6085605.655 -21298914.931 -12639952.114 10 0 59929 80100.00000 0 6648753.237 -22577833.335 -9831053.797 10 0 59929 81000.00000 0 6961756.039 -23572255.332 -6831152.404 10 0 59929 81900.00000 0 7060301.455 -24236737.846 -3698576.527 10 0 59929 82800.00000 0 6988627.094 -24536101.595 -494190.715 10 0 59929 83700.00000 0 6797398.081 -24446938.526 2719789.656 10 0 59929 84600.00000 0 6541321.363 -23958643.387 5881006.686 10 0 59929 85500.00000 0 6276598.824 -23073926.839 8928167.639 10 0 59930 0.00000 0 6058327.413 -21808789.498 11802228.362 10 0 59930 900.00000 0 5937956.176 -20191957.869 14447531.315 10 0 59930 1800.00000 0 5960907.648 -18263808.106 16812872.806 10 0 59930 2700.00000 0 6164463.154 -16074820.501 18852484.835 10 0 59930 3600.00000 0 6576000.913 -13683630.685 20526909.656 10 0 59930 4500.00000 0 7211660.536 -11154757.635 21803752.874 10 0 59930 5400.00000 0 8075489.827 -8556102.251 22658301.442 10 0 59930 6300.00000 0 9159109.809 -5956319.147 23073995.673 10 0 59930 7200.00000 0 10441912.519 -3422169.437 23042746.917 10 0 59930 8100.00000 0 11891784.213 -1015962.685 22565095.247 10 0 59930 9000.00000 0 13466325.116 1206807.468 21650204.131 10 0 59930 9900.00000 0 15114516.274 3199537.281 20315691.803 10 0 59930 10800.00000 0 16778765.638 4926211.661 18587301.807 10 0 59930 11700.00000 0 18397249.582 6362658.025 16498417.892 10 0 59930 12600.00000 0 19906453.445 7497303.616 14089431.376 10 0 59930 13500.00000 0 21243805.918 8331405.047 11406971.743 10 0 59930 14400.00000 0 22350297.639 8878740.549 8503014.014 10 0 59930 15300.00000 0 23172974.246 9164777.718 5433879.132 10 0 59930 16200.00000 0 23667198.821 9225351.629 2259145.924 10 0 59930 17100.00000 0 23798587.710 9104908.918 -959504.693 10 0 59930 18000.00000 0 23544536.936 8854392.016 -4159490.658 10 0 59930 18900.00000 0 22895273.397 8528853.274 -7278551.151 10 0 59930 19800.00000 0 21854384.893 8184900.581 -10255965.933 10 0 59930 20700.00000 0 20438805.073 7878083.484 -13033746.792 10 0 59930 21600.00000 0 18678252.485 7660331.672 -15557776.933 10 0 59930 22500.00000 0 16614146.180 7577555.627 -17778875.026 10 0 59930 23400.00000 0 14298042.650 7667512.359 -19653762.190 10 0 59930 24300.00000 0 11789659.205 7958027.896 -21145912.365 10 0 59930 25200.00000 0 9154566.429 8465652.909 -22226269.001 10 0 59930 26100.00000 0 6461646.367 9194809.298 -22873813.789 10 0 59930 27000.00000 0 3780422.828 10137464.594 -23075976.331 10 0 59930 27900.00000 0 1178375.340 11273348.496 -22828876.938 10 0 59930 28800.00000 0 -1281651.051 12570702.747 -22137398.039 10 0 59930 29700.00000 0 -3543832.406 13987532.906 -21015083.230 10 0 59930 30600.00000 0 -5561449.960 15473309.305 -19483866.313 10 0 59930 31500.00000 0 -7298585.503 16971045.392 -17573636.052 10 0 59930 32400.00000 0 -8731358.623 18419665.761 -15321645.594 10 0 59930 33300.00000 0 -9848655.725 19756563.942 -12771778.519 10 0 59930 34200.00000 0 -10652322.195 20920242.003 -9973686.366 10 0 59930 35100.00000 0 -11156811.842 21852920.709 -6981814.969 10 0 59930 36000.00000 0 -11388310.531 22503010.248 -3854339.104 10 0 59930 36900.00000 0 -11383373.060 22827337.636 -652026.799 10 0 59930 37800.00000 0 -11187132.681 22793037.245 2562944.085 10 0 59930 38700.00000 0 -10851160.487 22379025.348 5728193.635 10 0 59930 39600.00000 0 -10431066.256 21576997.143 8782348.219 10 0 59930 40500.00000 0 -9983942.922 20391904.941 11666225.963 10 0 59930 41400.00000 0 -9565762.913 18841897.910 14323976.634 10 0 59930 42300.00000 0 -9228836.198 16957726.290 16704154.338 10 0 59930 43200.00000 0 -9019436.858 14781635.098 18760703.103 10 0 59930 44100.00000 0 -8975697.564 12365793.292 20453837.337 10 0 59930 45000.00000 0 -9125859.918 9770323.392 21750801.233 10 0 59930 45900.00000 0 -9486953.603 7061012.579 22626493.643 10 0 59930 46800.00000 0 -10063959.469 4306799.151 23063947.414 10 0 59930 47700.00000 0 -10849491.649 1577137.197 23054654.708 10 0 59930 48600.00000 0 -11824012.428 -1060652.905 22598732.531 10 0 59930 49500.00000 0 -12956571.734 -3543940.028 21704925.309 10 0 59930 50400.00000 0 -14206041.456 -5817139.467 20390444.135 10 0 59930 51300.00000 0 -15522794.417 -7833775.350 18680644.988 10 0 59930 52200.00000 0 -16850759.269 -9558163.781 16608551.035 10 0 59930 53100.00000 0 -18129766.702 -10966647.401 14214226.950 10 0 59930 54000.00000 0 -19298089.892 -12048330.397 11544015.920 10 0 59930 54900.00000 0 -20295073.437 -12805283.442 8649652.733 10 0 59930 55800.00000 0 -21063740.701 -13252209.854 5587269.061 10 0 59930 56700.00000 0 -21553269.726 -13415586.886 2416309.345 10 0 59930 57600.00000 0 -21721232.795 -13332318.076 -801622.078 10 0 59930 58500.00000 0 -21535504.052 -13047953.386 -4003960.175 10 0 59930 59400.00000 0 -20975753.262 -12614552.444 -7128401.055 10 0 59930 60300.00000 0 -20034460.919 -12088281.594 -10114121.950 10 0 59930 61200.00000 0 -18717410.140 -11526847.084 -12902974.581 10 0 59930 62100.00000 0 -17043632.865 -10986873.956 -15440627.584 10 0 59930 63000.00000 0 -15044811.082 -10521342.659 -17677634.768 10 0 59930 63900.00000 0 -12764157.116 -10177193.066 -19570407.290 10 0 59930 64800.00000 0 -10254819.045 -9993198.398 -21082070.157 10 0 59930 65700.00000 0 -7577877.533 -9998200.009 -22183185.822 10 0 59930 66600.00000 0 -4800017.720 -10209778.460 -22852330.461 10 0 59930 67500.00000 0 -1990973.354 -10633417.663 -23076511.691 10 0 59930 68400.00000 0 779150.143 -11262197.725 -22851419.714 10 0 59930 69300.00000 0 3442561.940 -12077029.614 -22181507.256 10 0 59930 70200.00000 0 5936369.600 -13047421.636 -21079897.108 10 0 59930 71100.00000 0 8204953.094 -14132745.212 -19568119.451 10 0 59930 72000.00000 0 10202030.633 -15283946.159 -17675684.553 10 0 59930 72900.00000 0 11892331.160 -16445628.916 -15439499.598 10 0 59930 73800.00000 0 13252805.046 -17558425.354 -12903141.480 10 0 59930 74700.00000 0 14273323.947 -18561547.821 -10116000.278 10 0 59930 75600.00000 0 14956842.534 -19395418.370 -7132310.626 10 0 59930 76500.00000 0 15319017.411 -20004263.035 -4010090.377 10 0 59930 77400.00000 0 15387301.355 -20338561.583 -810007.851 10 0 59930 78300.00000 0 15199553.083 -20357249.520 2405799.798 10 0 59930 79200.00000 0 14802222.958 -20029579.710 5574933.747 10 0 59930 80100.00000 0 14248192.589 -19336565.518 8635942.411 10 0 59930 81000.00000 0 13594360.550 -18271945.132 11529508.624 10 0 59930 81900.00000 0 12899076.629 -16842626.851 14199592.357 10 0 59930 82800.00000 0 12219532.955 -15068596.947 16594507.262 10 0 59930 83700.00000 0 11609221.625 -12982293.933 18667911.038 10 0 59930 84600.00000 0 11115565.284 -10627475.154 20379691.496 10 0 59930 85500.00000 0 10777819.514 -8057622.420 21696732.272 99